Regional Weather Roundup
Issued by NWS

Home | Current Version | Previous Version | Text Only | Print | Product List | Glossary Off
Versions: 1 2 3 4 5 6 7 8 9 10 11 12 13 14 15 16 17 18 19 20 21 22 23 24 25 26 27 28 29 30 31 32 33 34 35 36 37 38 39 40 41 42 43 44 45 46 47 48 49 50

000
ASUS45 KCYS 030710
RWRWY

WYOMING REGIONAL WEATHER ROUNDUP
NATIONAL WEATHER SERVICE CHEYENNE WY
100 AM MDT MON AUG 03 2015

NOTE:  "FAIR" INDICATES FEW OR NO CLOUDS BELOW 12,000 FEET
WITH NO SIGNIFICANT WEATHER AND/OR OBSTRUCTIONS TO VISIBILITY.

WYZ001-030800-
YELLOWSTONE NATIONAL PARK

CITY           SKY/WX    TMP DP  RH WIND       PRES   REMARKS
LK YELLOWSTONE   N/A     49  36  61 CALM      30.27S
W YELLOWSTONE  NOT AVBL

$$
WYZ002>013-054>058-071-098>099-030800-
NORTHERN WYOMING

CITY           SKY/WX    TMP DP  RH WIND       PRES   REMARKS
JACKSON        NOT AVBL
CODY           FAIR      66  37  34 CALM      30.08S
GREYBULL       FAIR      71  40  32 VRB5      29.96R
WORLAND        FAIR      68  36  30 SW6       30.00R
SHERIDAN       FAIR      60  45  57 CALM      30.05S
BUFFALO        FAIR      64  42  44 W7        30.11F
GILLETTE       FAIR      59  49  69 CALM      30.06S
HULETT         FAIR      64  46  52 E8        30.08S
NEWCASTLE      FAIR      63  46  55 CALM      30.07S

$$
WYZ014>020-022>026-101>103-030800-
CENTRAL WYOMING

CITY           SKY/WX    TMP DP  RH WIND       PRES   REMARKS
BIG PINEY      FAIR      57  31  37 CALM      30.18R
PINEDALE       FAIR      59  28  31 W5        30.18S
DUBOIS         FAIR      59  27  29 NW7       30.21S
LANDER         FAIR      67  33  28 S5        30.10R
RIVERTON       FAIR      70  36  28 E3        30.10R
CASPER         FAIR      68  52  56 E9        30.08S
DOUGLAS        FAIR      66  54  65 E8        30.08S

$$
WYZ021-027>030-104>119-030800-
SOUTHERN WYOMING

CITY           SKY/WX    TMP DP  RH WIND       PRES   REMARKS
EVANSTON       MOCLDY    66  42  41 W16       30.17F
KEMMERER       FAIR      66  37  34 S6        30.20R
FORT BRIDGER   CLOUDY    70  41  35 S3        30.22R
ROCK SPRINGS   FAIR      65  48  54 S12       30.16R
DIXON          FAIR      64  49  59 W3        30.22R
RAWLINS        MOCLDY    68  45  43 SW13      30.18F
SARATOGA       FAIR      64  45  48 W10       30.21S
LARAMIE        FAIR      60  45  57 S5        30.21S
CHEYENNE       FAIR      65  50  58 CALM      30.14S
TORRINGTON     FAIR      65  54  67 NE10      30.00S
PINE BLUFFS    FAIR      63  50  63 S7        30.09S

$$



USA.gov is the U.S. government's official web portal to all federal, state and local government web resources and services.